| time (UTC) | temp F | wind direction | speed MPH | gust MPH | rain 1hr in | rain 24hr in | rain mn in | humidity % | barometer mb |
| 20260506185428 | 43 | 43 | 0.0 | 0.0 | 0.07 | 0.25 | 0.25 | 93 | 1009.8 |
| 20260506184925 | 43 | 29 | 0.0 | 1.0 | 0.07 | 0.25 | 0.25 | 93 | 1009.6 |
| 20260506184422 | 43 | 1 | 0.0 | 0.0 | 0.00 | 0.24 | 0.24 | 93 | 1010.0 |
| 20260506183919 | 43 | 354 | 0.0 | 0.0 | 0.00 | 0.24 | 0.24 | 93 | 1009.9 |
| 20260506183414 | 43 | 11 | 0.0 | 0.0 | 0.00 | 0.24 | 0.24 | 93 | 1009.8 |
| 20260506182912 | 43 | 13 | 1.0 | 2.0 | 0.00 | 0.24 | 0.24 | 93 | 1009.8 |
| 20260506182409 | 44 | 3 | 1.0 | 1.0 | 0.00 | 0.24 | 0.24 | 93 | 1009.8 |
| 20260506181906 | 44 | 9 | 0.0 | 0.0 | 0.05 | 0.24 | 0.24 | 93 | 1009.7 |
| 20260506181404 | 44 | 355 | 0.0 | 0.0 | 0.05 | 0.24 | 0.24 | 93 | 1009.7 |
| 20260506180901 | 44 | 20 | 1.0 | 1.0 | 0.00 | 0.23 | 0.23 | 93 | 1009.6 |
| 20260506180357 | 44 | 351 | 0.0 | 0.0 | 0.00 | 0.23 | 0.23 | 93 | 1009.5 |
| 20260506175854 | 44 | 25 | 0.0 | 1.0 | 0.07 | 0.23 | 0.23 | 93 | 1009.5 |
| 20260506175350 | 44 | 25 | 1.0 | 1.0 | 0.07 | 0.23 | 0.23 | 93 | 1009.6 |
| 20260506174847 | 44 | 19 | 0.0 | 0.0 | 0.00 | 0.22 | 0.22 | 92 | 1009.7 |
| 20260506174345 | 44 | 22 | 2.0 | 2.0 | 0.07 | 0.22 | 0.22 | 92 | 1009.8 |
| 20260506173843 | 44 | 30 | 0.0 | 1.0 | 0.07 | 0.22 | 0.22 | 92 | 1009.6 |
| 20260506173339 | 44 | 18 | 0.0 | 1.0 | 0.05 | 0.21 | 0.21 | 92 | 1009.8 |
| 20260506172836 | 44 | 337 | 0.0 | 0.0 | 0.05 | 0.21 | 0.21 | 92 | 1009.8 |
| 20260506172333 | 44 | 340 | 0.0 | 0.0 | 0.07 | 0.20 | 0.20 | 92 | 1010.0 |
| 20260506171830 | 44 | 335 | 0.0 | 0.0 | 0.12 | 0.20 | 0.20 | 91 | 1010.0 |
| 20260506171327 | 44 | 335 | 0.0 | 0.0 | 0.12 | 0.19 | 0.19 | 91 | 1010.1 |
| 20260506170825 | 44 | 309 | 0.0 | 0.0 | 0.12 | 0.18 | 0.18 | 90 | 1010.0 |
| 20260506170320 | 44 | 334 | 0.0 | 0.0 | 0.05 | 0.17 | 0.17 | 90 | 1010.0 |
| 20260506165820 | 44 | 347 | 0.0 | 0.0 | 0.07 | 0.16 | 0.16 | 89 | 1010.1 |
| 20260506165317 | 44 | 340 | 0.0 | 0.0 | 0.12 | 0.16 | 0.16 | 90 | 1009.9 |
| 20260506164813 | 44 | 351 | 1.0 | 1.0 | 0.05 | 0.15 | 0.15 | 89 | 1009.8 |
| 20260506164310 | 44 | 349 | 0.0 | 0.0 | 0.12 | 0.15 | 0.15 | 88 | 1009.9 |
| 20260506163807 | 44 | 24 | 0.0 | 0.0 | 0.07 | 0.14 | 0.14 | 87 | 1009.5 |
| 20260506163302 | 44 | 5 | 0.0 | 0.0 | 0.05 | 0.13 | 0.13 | 87 | 1009.7 |
| 20260506162758 | 44 | 25 | 0.0 | 1.0 | 0.12 | 0.13 | 0.13 | 86 | 1009.9 |
| 20260506162256 | 44 | 347 | 0.0 | 0.0 | 0.12 | 0.12 | 0.12 | 88 | 1009.9 |
| 20260506161753 | 45 | 352 | 0.0 | 0.0 | 0.12 | 0.11 | 0.11 | 86 | 1010.2 |
| 20260506161250 | 45 | 338 | 0.0 | 0.0 | 0.14 | 0.10 | 0.10 | 85 | 1010.3 |
| 20260506160748 | 44 | 44 | 1.0 | 2.0 | 0.12 | 0.09 | 0.09 | 86 | 1010.3 |
| 20260506160244 | 44 | 338 | 0.0 | 0.0 | 0.12 | 0.08 | 0.08 | 86 | 1010.2 |
| 20260506155743 | 44 | 328 | 0.0 | 0.0 | 0.12 | 0.07 | 0.07 | 85 | 1010.3 |
| 20260506155239 | 44 | 351 | 0.0 | 0.0 | 0.12 | 0.06 | 0.06 | 83 | 1010.1 |
| 20260506153352 | 46 | 5 | 1.0 | 2.0 | 0.12 | 0.02 | 0.02 | 71 | 1010.6 |
| 20260506152849 | 47 | 358 | 1.0 | 1.0 | 0.07 | 0.01 | 0.01 | 68 | 1010.6 |
| 20260506152346 | 47 | 309 | 0.0 | 0.0 | 0.00 | 0.00 | 0.00 | 62 | 1010.6 |
| 20260506151845 | 48 | 308 | 0.0 | 0.0 | 0.00 | 0.00 | 0.00 | 59 | 1010.4 |
| 20260506151341 | 48 | 348 | 0.0 | 0.0 | 0.00 | 0.00 | 0.00 | 53 | 1010.3 |
| 20260506150839 | 48 | 17 | 0.0 | 0.0 | 0.00 | 0.00 | 0.00 | 47 | 1010.1 |
| 20260506150335 | 49 | 11 | 0.0 | 0.0 | 0.00 | 0.00 | 0.00 | 46 | 1009.8 |
| 20260506145832 | 49 | 359 | 0.0 | 0.0 | 0.00 | 0.00 | 0.00 | 44 | 1009.9 |
| 20260506145328 | 50 | 3 | 1.0 | 2.0 | 0.00 | 0.00 | 0.00 | 40 | 1010.0 |
| 20260506144826 | 50 | 302 | 0.0 | 0.0 | 0.00 | 0.00 | 0.00 | 41 | 1010.2 |
| 20260506144322 | 50 | 60 | 1.0 | 1.0 | 0.00 | 0.00 | 0.00 | 37 | 1010.0 |
| 20260506143821 | 50 | 339 | 0.0 | 0.0 | 0.00 | 0.00 | 0.00 | 36 | 1010.0 |
| 20260506143317 | 50 | 34 | 0.0 | 1.0 | 0.00 | 0.00 | 0.00 | 36 | 1010.1 |
| 20260506142816 | 50 | 45 | 2.0 | 2.0 | 0.00 | 0.00 | 0.00 | 36 | 1009.6 |
| 20260506142313 | 50 | 15 | 0.0 | 1.0 | 0.00 | 0.00 | 0.00 | 35 | 1009.8 |
| 20260506141812 | 50 | 301 | 2.0 | 5.0 | 0.00 | 0.00 | 0.00 | 37 | 1009.6 |
| 20260506141309 | 50 | 17 | 0.0 | 0.0 | 0.00 | 0.00 | 0.00 | 37 | 1009.3 |
| 20260506140807 | 51 | 353 | 1.0 | 1.0 | 0.00 | 0.00 | 0.00 | 38 | 1009.3 |
| 20260506140303 | 51 | 236 | 0.0 | 1.0 | 0.00 | 0.00 | 0.00 | 40 | 1009.3 |
| 20260506135801 | 50 | 11 | 1.0 | 2.0 | 0.00 | 0.00 | 0.00 | 40 | 1009.3 |
| 20260506135257 | 51 | 8 | 1.0 | 1.0 | 0.00 | 0.00 | 0.00 | 39 | 1009.1 |
| 20260506134754 | 51 | 54 | 0.0 | 1.0 | 0.00 | 0.00 | 0.00 | 40 | 1009.5 |
| 20260506134250 | 51 | 13 | 1.0 | 1.0 | 0.00 | 0.00 | 0.00 | 42 | 1009.8 |
| 20260506133747 | 51 | 18 | 0.0 | 1.0 | 0.00 | 0.00 | 0.00 | 42 | 1009.5 |
| 20260506133244 | 51 | 335 | 0.0 | 0.0 | 0.00 | 0.00 | 0.00 | 42 | 1009.6 |
| 20260506132741 | 51 | 253 | 1.0 | 3.0 | 0.00 | 0.00 | 0.00 | 44 | 1009.7 |
| 20260506132238 | 51 | 72 | 0.0 | 0.0 | 0.00 | 0.00 | 0.00 | 45 | 1009.7 |
| 20260506131736 | 51 | 359 | 1.0 | 1.0 | 0.00 | 0.00 | 0.00 | 48 | 1009.8 |
| 20260506131231 | 52 | 33 | 2.0 | 2.0 | 0.00 | 0.00 | 0.00 | 46 | 1009.7 |
| 20260506130729 | 52 | 338 | 0.0 | 0.0 | 0.00 | 0.00 | 0.00 | 46 | 1010.1 |
| 20260506130225 | 52 | 26 | 0.0 | 0.0 | 0.00 | 0.00 | 0.00 | 45 | 1010.2 |
| 20260506125724 | 52 | 16 | 2.0 | 5.0 | 0.00 | 0.00 | 0.00 | 45 | 1010.4 |
| 20260506125221 | 52 | 351 | 0.0 | 0.0 | 0.00 | 0.00 | 0.00 | 45 | 1010.2 |
| 20260506124719 | 52 | 291 | 0.0 | 1.0 | 0.00 | 0.00 | 0.00 | 46 | 1010.0 |
| 20260506124217 | 52 | 348 | 1.0 | 1.0 | 0.00 | 0.00 | 0.00 | 44 | 1010.2 |
| 20260506123714 | 53 | 87 | 2.0 | 2.0 | 0.00 | 0.00 | 0.00 | 43 | 1010.4 |
| 20260506123213 | 53 | 250 | 1.0 | 1.0 | 0.00 | 0.00 | 0.00 | 42 | 1010.5 |
| 20260506122709 | 53 | 197 | 1.0 | 2.0 | 0.00 | 0.00 | 0.00 | 43 | 1010.9 |
| 20260506122207 | 54 | 6 | 0.0 | 1.0 | 0.00 | 0.00 | 0.00 | 43 | 1010.7 |
| 20260506121704 | 53 | 342 | 1.0 | 1.0 | 0.00 | 0.00 | 0.00 | 42 | 1010.9 |
| 20260506121200 | 54 | 122 | 0.0 | 0.0 | 0.00 | 0.00 | 0.00 | 41 | 1011.0 |
| 20260506120658 | 55 | 348 | 0.0 | 0.0 | 0.00 | 0.00 | 0.00 | 40 | 1011.0 |
| 20260506120156 | 55 | 355 | 0.0 | 1.0 | 0.00 | 0.00 | 0.00 | 41 | 1010.8 |
| 20260506115654 | 56 | 8 | 2.0 | 2.0 | 0.00 | 0.00 | 0.00 | 40 | 1010.9 |
| 20260506115152 | 56 | 12 | 0.0 | 0.0 | 0.00 | 0.00 | 0.00 | 42 | 1010.8 |
| 20260506114649 | 57 | 337 | 0.0 | 0.0 | 0.00 | 0.00 | 0.00 | 41 | 1010.7 |
| 20260506114146 | 58 | 336 | 0.0 | 1.0 | 0.00 | 0.00 | 0.00 | 40 | 1010.7 |
| 20260506113645 | 57 | 43 | 5.0 | 9.0 | 0.00 | 0.00 | 0.00 | 42 | 1010.9 |
| 20260506113142 | 57 | 271 | 1.0 | 1.0 | 0.00 | 0.00 | 0.00 | 43 | 1011.0 |
| 20260506112637 | 57 | 220 | 1.0 | 2.0 | 0.00 | 0.00 | 0.00 | 42 | 1010.7 |
| 20260506112136 | 57 | 129 | 1.0 | 2.0 | 0.00 | 0.00 | 0.00 | 43 | 1010.8 |
| 20260506111633 | 57 | 1 | 1.0 | 1.0 | 0.00 | 0.00 | 0.00 | 42 | 1010.8 |
| 20260506111131 | 57 | 44 | 1.0 | 1.0 | 0.00 | 0.00 | 0.00 | 42 | 1010.6 |
| 20260506110628 | 58 | 354 | 0.0 | 0.0 | 0.00 | 0.00 | 0.00 | 40 | 1010.5 |
| 20260506110125 | 59 | 1 | 2.0 | 3.0 | 0.00 | 0.00 | 0.00 | 39 | 1010.8 |
| 20260506105622 | 58 | 332 | 0.0 | 0.0 | 0.00 | 0.00 | 0.00 | 40 | 1010.6 |
| 20260506105119 | 57 | 26 | 1.0 | 2.0 | 0.00 | 0.00 | 0.00 | 41 | 1010.4 |
| 20260506104617 | 57 | 66 | 1.0 | 2.0 | 0.00 | 0.00 | 0.00 | 41 | 1010.7 |
| 20260506104114 | 57 | 11 | 3.0 | 3.0 | 0.00 | 0.00 | 0.00 | 39 | 1010.7 |
| 20260506103611 | 57 | 24 | 0.0 | 1.0 | 0.00 | 0.00 | 0.00 | 41 | 1010.5 |
| 20260506103108 | 58 | 310 | 1.0 | 1.0 | 0.00 | 0.00 | 0.00 | 40 | 1010.6 |
| 20260506102606 | 57 | 350 | 1.0 | 1.0 | 0.00 | 0.00 | 0.00 | 41 | 1010.6 |
| 20260506102103 | 57 | 25 | 1.0 | 1.0 | 0.00 | 0.00 | 0.00 | 39 | 1010.7 |
| 20260506101600 | 57 | 355 | 1.0 | 1.0 | 0.00 | 0.00 | 0.00 | 40 | 1010.6 |
| 20260506101057 | 57 | 289 | 0.0 | 0.0 | 0.00 | 0.00 | 0.00 | 40 | 1010.8 |
| 20260506100555 | 57 | 353 | 0.0 | 0.0 | 0.00 | 0.00 | 0.00 | 39 | 1010.8 |
| 20260506100053 | 57 | 236 | 2.0 | 3.0 | 0.00 | 0.00 | 0.00 | 38 | 1011.0 |
| 20260506095551 | 58 | 353 | 0.0 | 1.0 | 0.00 | 0.00 | 0.00 | 38 | 1010.7 |
| 20260506095048 | 58 | 45 | 0.0 | 0.0 | 0.00 | 0.00 | 0.00 | 38 | 1010.9 |
| 20260506094545 | 58 | 71 | 0.0 | 0.0 | 0.00 | 0.00 | 0.00 | 37 | 1010.7 |
| 20260506094043 | 58 | 69 | 0.0 | 1.0 | 0.00 | 0.00 | 0.00 | 38 | 1010.8 |
| 20260506093541 | 57 | 90 | 1.0 | 1.0 | 0.00 | 0.00 | 0.00 | 39 | 1010.9 |
| 20260506093038 | 57 | 5 | 0.0 | 0.0 | 0.00 | 0.00 | 0.00 | 40 | 1010.7 |
| 20260506092536 | 56 | 27 | 0.0 | 1.0 | 0.00 | 0.00 | 0.00 | 40 | 1010.9 |
| 20260506092033 | 56 | 44 | 2.0 | 3.0 | 0.00 | 0.00 | 0.00 | 39 | 1011.2 |
| 20260506091531 | 56 | 16 | 0.0 | 1.0 | 0.00 | 0.00 | 0.00 | 40 | 1010.9 |
| 20260506091028 | 56 | 301 | 1.0 | 2.0 | 0.00 | 0.00 | 0.00 | 41 | 1011.1 |
| 20260506090526 | 56 | 298 | 1.0 | 1.0 | 0.00 | 0.00 | 0.00 | 41 | 1011.1 |
| 20260506090022 | 56 | 28 | 0.0 | 1.0 | 0.00 | 0.00 | 0.00 | 41 | 1011.1 |
| 20260506085519 | 56 | 304 | 1.0 | 1.0 | 0.00 | 0.00 | 0.00 | 41 | 1011.2 |
| 20260506085015 | 56 | 345 | 0.0 | 0.0 | 0.00 | 0.00 | 0.00 | 43 | 1011.3 |
| 20260506084512 | 55 | 44 | 1.0 | 2.0 | 0.00 | 0.00 | 0.00 | 38 | 1011.3 |
| 20260506084008 | 56 | 3 | 0.0 | 1.0 | 0.00 | 0.00 | 0.00 | 38 | 1011.5 |
| 20260506083506 | 56 | 73 | 1.0 | 2.0 | 0.00 | 0.00 | 0.00 | 42 | 1011.4 |
| 20260506083003 | 55 | 0 | 1.0 | 1.0 | 0.00 | 0.00 | 0.00 | 40 | 1011.3 |
| 20260506082500 | 55 | 73 | 0.0 | 1.0 | 0.00 | 0.00 | 0.00 | 41 | 1011.1 |
| 20260506081955 | 54 | 33 | 3.0 | 3.0 | 0.00 | 0.00 | 0.00 | 42 | 1011.5 |
| 20260506081454 | 55 | 22 | 2.0 | 2.0 | 0.00 | 0.00 | 0.00 | 40 | 1011.4 |
| 20260506080951 | 54 | 3 | 0.0 | 0.0 | 0.00 | 0.00 | 0.00 | 43 | 1011.4 |
| 20260506080448 | 55 | 41 | 0.0 | 0.0 | 0.00 | 0.00 | 0.00 | 43 | 1011.4 |
| 20260506073431 | 54 | 344 | 0.0 | 0.0 | 0.00 | 0.00 | 0.00 | 45 | 1011.4 |
| 20260506072929 | 53 | 359 | 2.0 | 2.0 | 0.00 | 0.00 | 0.00 | 46 | 1011.6 |
| 20260506072426 | 53 | 358 | 0.0 | 1.0 | 0.00 | 0.00 | 0.00 | 46 | 1011.6 |
| 20260506071924 | 53 | 97 | 2.0 | 5.0 | 0.00 | 0.00 | 0.00 | 46 | 1011.4 |
| 20260506071422 | 53 | 1 | 0.0 | 1.0 | 0.00 | 0.00 | 0.00 | 47 | 1011.4 |
| 20260506070918 | 53 | 313 | 0.0 | 0.0 | 0.00 | 0.00 | 0.00 | 47 | 1011.4 |
| 20260506070415 | 52 | 89 | 1.0 | 1.0 | 0.00 | 0.00 | 0.00 | 50 | 1011.7 |
| 20260506062352 | 52 | 60 | 0.0 | 1.0 | 0.00 | 0.00 | 0.00 | 57 | 1011.3 |
| 20260506061848 | 52 | 251 | 0.0 | 0.0 | 0.00 | 0.00 | 0.00 | 56 | 1011.3 |
| 20260506061345 | 51 | 342 | 0.0 | 0.0 | 0.00 | 0.00 | 0.00 | 58 | 1011.6 |
| 20260506060843 | 51 | 359 | 1.0 | 2.0 | 0.00 | 0.00 | 0.00 | 56 | 1011.4 |
| 20260506060341 | 50 | 27 | 1.0 | 2.0 | 0.00 | 0.00 | 0.00 | 58 | 1011.3 |
| 20260506051313 | 50 | 348 | 0.0 | 0.0 | 0.00 | 0.00 | 0.00 | 68 | 1011.4 |
| 20260506050810 | 49 | 357 | 0.0 | 0.0 | 0.00 | 0.00 | 0.00 | 71 | 1011.2 |
| 20260506050308 | 50 | 7 | 0.0 | 0.0 | 0.00 | 0.00 | 0.00 | 70 | 1011.2 |
| 20260506044758 | 49 | 342 | 0.0 | 0.0 | 0.00 | 0.00 | 0.00 | 73 | 1011.5 |
| 20260506044256 | 50 | 327 | 0.0 | 0.0 | 0.00 | 0.00 | 0.00 | 72 | 1011.3 |
| 20260506043753 | 51 | 340 | 0.0 | 0.0 | 0.00 | 0.00 | 0.00 | 67 | 1011.1 |
| 20260506043250 | 50 | 354 | 0.0 | 0.0 | 0.00 | 0.00 | 0.00 | 71 | 1011.1 |
| 20260506042749 | 48 | 348 | 0.0 | 0.0 | 0.00 | 0.00 | 0.00 | 74 | 1011.1 |
| 20260506042247 | 47 | 351 | 0.0 | 0.0 | 0.00 | 0.00 | 0.00 | 75 | 1011.2 |
| 20260506041745 | 46 | 312 | 0.0 | 0.0 | 0.00 | 0.00 | 0.00 | 76 | 1011.2 |
| 20260506041242 | 45 | 295 | 0.0 | 0.0 | 0.00 | 0.00 | 0.00 | 76 | 1011.1 |
| 20260506040739 | 44 | 289 | 0.0 | 0.0 | 0.00 | 0.00 | 0.00 | 77 | 1011.1 |
| 20260506040236 | 43 | 292 | 0.0 | 0.0 | 0.00 | 0.00 | 0.00 | 79 | 1011.0 |
| 20260506035733 | 42 | 284 | 0.0 | 0.0 | 0.00 | 0.00 | 0.00 | 79 | 1011.1 |
| 20260506035230 | 41 | 284 | 0.0 | 0.0 | 0.00 | 0.00 | 0.00 | 81 | 1011.0 |
| 20260506034727 | 40 | 284 | 0.0 | 0.0 | 0.00 | 0.00 | 0.00 | 82 | 1011.1 |
| 20260506034224 | 39 | 284 | 0.0 | 0.0 | 0.00 | 0.00 | 0.00 | 83 | 1010.8 |
| 20260506033721 | 38 | 282 | 0.0 | 0.0 | 0.00 | 0.00 | 0.00 | 84 | 1011.1 |
| 20260506033218 | 38 | 281 | 0.0 | 0.0 | 0.00 | 0.00 | 0.00 | 85 | 1011.1 |
| 20260506032715 | 37 | 284 | 0.0 | 0.0 | 0.00 | 0.00 | 0.00 | 85 | 1011.0 |
| 20260506032212 | 37 | 292 | 0.0 | 0.0 | 0.00 | 0.00 | 0.00 | 85 | 1010.6 |
| 20260506031708 | 37 | 292 | 0.0 | 0.0 | 0.00 | 0.00 | 0.00 | 86 | 1010.8 |
| 20260506031206 | 37 | 292 | 0.0 | 0.0 | 0.00 | 0.00 | 0.00 | 86 | 1010.6 |
| 20260506030704 | 37 | 284 | 0.0 | 0.0 | 0.00 | 0.00 | 0.00 | 86 | 1010.6 |
| 20260506030201 | 37 | 279 | 0.0 | 0.0 | 0.00 | 0.00 | 0.00 | 86 | 1010.4 |
| 20260506025658 | 37 | 270 | 0.0 | 0.0 | 0.00 | 0.00 | 0.00 | 86 | 1010.4 |
| 20260506025154 | 37 | 267 | 0.0 | 0.0 | 0.00 | 0.00 | 0.00 | 86 | 1010.5 |
| 20260506024651 | 37 | 294 | 0.0 | 0.0 | 0.00 | 0.00 | 0.00 | 86 | 1010.5 |
| 20260506024148 | 37 | 299 | 0.0 | 0.0 | 0.00 | 0.00 | 0.00 | 86 | 1010.3 |
| 20260506023644 | 37 | 300 | 0.0 | 0.0 | 0.00 | 0.00 | 0.00 | 86 | 1010.3 |
| 20260506023141 | 37 | 299 | 0.0 | 0.0 | 0.00 | 0.00 | 0.00 | 85 | 1010.4 |
| 20260506022639 | 38 | 289 | 0.0 | 0.0 | 0.00 | 0.00 | 0.00 | 85 | 1010.3 |
| 20260506022136 | 38 | 289 | 0.0 | 0.0 | 0.00 | 0.00 | 0.00 | 85 | 1010.2 |
| 20260506021634 | 38 | 280 | 0.0 | 0.0 | 0.00 | 0.00 | 0.00 | 85 | 1010.0 |
| 20260506021131 | 38 | 279 | 0.0 | 0.0 | 0.00 | 0.00 | 0.00 | 84 | 1010.2 |
| 20260506020628 | 38 | 276 | 0.0 | 0.0 | 0.00 | 0.00 | 0.00 | 84 | 1010.1 |
| 20260506020125 | 38 | 291 | 0.0 | 1.0 | 0.00 | 0.00 | 0.00 | 84 | 1010.0 |
| 20260506015623 | 39 | 304 | 0.0 | 0.0 | 0.00 | 0.00 | 0.00 | 84 | 1010.0 |
| 20260506015119 | 39 | 309 | 0.0 | 0.0 | 0.00 | 0.00 | 0.00 | 84 | 1010.1 |
| 20260506014612 | 39 | 309 | 0.0 | 0.0 | 0.00 | 0.00 | 0.00 | 84 | 1009.9 |
| 20260506014107 | 39 | 310 | 0.0 | 0.0 | 0.00 | 0.00 | 0.00 | 84 | 1010.0 |
| 20260506013605 | 40 | 313 | 0.0 | 0.0 | 0.00 | 0.00 | 0.00 | 84 | 1010.0 |
| 20260506013102 | 40 | 313 | 0.0 | 0.0 | 0.00 | 0.00 | 0.00 | 84 | 1009.9 |
| 20260506012558 | 40 | 312 | 0.0 | 0.0 | 0.00 | 0.00 | 0.00 | 83 | 1009.8 |
| 20260506012054 | 40 | 312 | 0.0 | 0.0 | 0.00 | 0.00 | 0.00 | 82 | 1009.8 |
| 20260506011552 | 40 | 312 | 0.0 | 0.0 | 0.00 | 0.00 | 0.00 | 82 | 1009.8 |
| 20260506011043 | 41 | 312 | 0.0 | 0.0 | 0.00 | 0.00 | 0.00 | 82 | 1009.8 |
| 20260506010542 | 41 | 312 | 0.0 | 0.0 | 0.00 | 0.00 | 0.00 | 82 | 1009.6 |
| 20260506010038 | 40 | 323 | 0.0 | 0.0 | 0.00 | 0.00 | 0.00 | 82 | 1009.5 |
| 20260506005535 | 40 | 323 | 0.0 | 0.0 | 0.00 | 0.00 | 0.00 | 81 | 1009.5 |
| 20260506005031 | 41 | 323 | 0.0 | 0.0 | 0.00 | 0.00 | 0.00 | 80 | 1009.5 |
| 20260506004529 | 40 | 321 | 0.0 | 0.0 | 0.00 | 0.00 | 0.00 | 80 | 1009.3 |
| 20260506004025 | 41 | 321 | 0.0 | 0.0 | 0.00 | 0.00 | 0.00 | 79 | 1009.4 |
| 20260506003522 | 41 | 321 | 0.0 | 0.0 | 0.00 | 0.00 | 0.00 | 78 | 1009.3 |
| 20260506003018 | 41 | 321 | 0.0 | 0.0 | 0.00 | 0.00 | 0.00 | 78 | 1009.3 |
| 20260506002514 | 41 | 321 | 0.0 | 0.0 | 0.00 | 0.00 | 0.00 | 77 | 1009.2 |
| 20260506002010 | 41 | 321 | 0.0 | 0.0 | 0.00 | 0.00 | 0.00 | 77 | 1009.3 |
| 20260506001506 | 41 | 321 | 0.0 | 0.0 | 0.00 | 0.00 | 0.00 | 76 | 1009.2 |
| 20260506001004 | 42 | 320 | 0.0 | 0.0 | 0.00 | 0.00 | 0.00 | 76 | 1009.2 |
| 20260506000501 | 42 | 321 | 0.0 | 0.0 | 0.00 | 0.00 | 0.00 | 75 | 1009.3 |
| 20260505235958 | 42 | 321 | 0.0 | 0.0 | 0.00 | 0.00 | 0.00 | 75 | 1009.3 |
| 20260505235456 | 42 | 320 | 0.0 | 0.0 | 0.00 | 0.00 | 0.00 | 75 | 1009.0 |
| 20260505234953 | 42 | 320 | 0.0 | 0.0 | 0.00 | 0.00 | 0.00 | 74 | 1008.8 |
| 20260505234450 | 42 | 320 | 0.0 | 0.0 | 0.00 | 0.00 | 0.00 | 73 | 1009.3 |
| 20260505233947 | 43 | 320 | 0.0 | 0.0 | 0.00 | 0.00 | 0.00 | 73 | 1009.1 |
| 20260505233444 | 43 | 320 | 0.0 | 0.0 | 0.00 | 0.00 | 0.00 | 73 | 1009.0 |
| 20260505232942 | 43 | 302 | 0.0 | 0.0 | 0.00 | 0.00 | 0.00 | 72 | 1008.9 |
| 20260505232440 | 43 | 327 | 0.0 | 0.0 | 0.00 | 0.00 | 0.00 | 71 | 1008.9 |
| 20260505231936 | 43 | 307 | 0.0 | 0.0 | 0.00 | 0.00 | 0.00 | 71 | 1009.1 |
| 20260505231434 | 44 | 297 | 0.0 | 0.0 | 0.00 | 0.00 | 0.00 | 71 | 1008.8 |
| 20260505230932 | 44 | 351 | 0.0 | 0.0 | 0.00 | 0.00 | 0.00 | 70 | 1008.9 |
| 20260505230429 | 44 | 329 | 0.0 | 0.0 | 0.00 | 0.00 | 0.00 | 69 | 1009.1 |
| 20260505225925 | 44 | 328 | 0.0 | 0.0 | 0.00 | 0.00 | 0.00 | 68 | 1008.9 |
| 20260505225422 | 44 | 332 | 0.0 | 0.0 | 0.00 | 0.00 | 0.00 | 67 | 1008.8 |
| 20260505224918 | 44 | 349 | 0.0 | 0.0 | 0.00 | 0.00 | 0.00 | 67 | 1009.0 |
| 20260505224416 | 44 | 355 | 0.0 | 0.0 | 0.00 | 0.00 | 0.00 | 66 | 1009.1 |
| 20260505223912 | 45 | 334 | 0.0 | 0.0 | 0.00 | 0.00 | 0.00 | 65 | 1009.0 |
| 20260505223409 | 45 | 339 | 0.0 | 0.0 | 0.00 | 0.00 | 0.00 | 64 | 1008.9 |
| 20260505222905 | 45 | 342 | 0.0 | 0.0 | 0.00 | 0.00 | 0.00 | 64 | 1009.0 |
| 20260505222402 | 45 | 321 | 0.0 | 0.0 | 0.00 | 0.00 | 0.00 | 63 | 1008.9 |
| 20260505221858 | 45 | 325 | 0.0 | 0.0 | 0.00 | 0.00 | 0.00 | 63 | 1009.1 |
| 20260505221355 | 45 | 283 | 0.0 | 0.0 | 0.00 | 0.00 | 0.00 | 62 | 1008.9 |
| 20260505220853 | 45 | 8 | 0.0 | 0.0 | 0.00 | 0.00 | 0.00 | 62 | 1008.8 |
| 20260505220349 | 46 | 335 | 0.0 | 0.0 | 0.00 | 0.00 | 0.00 | 61 | 1008.8 |
| 20260505215847 | 46 | 347 | 0.0 | 0.0 | 0.00 | 0.00 | 0.00 | 62 | 1008.9 |
| 20260505215345 | 46 | 357 | 0.0 | 0.0 | 0.00 | 0.00 | 0.00 | 63 | 1008.8 |
| 20260505214843 | 46 | 322 | 0.0 | 0.0 | 0.00 | 0.00 | 0.00 | 62 | 1008.7 |
| 20260505214340 | 46 | 317 | 0.0 | 0.0 | 0.00 | 0.00 | 0.00 | 62 | 1008.8 |
| 20260505213837 | 46 | 335 | 0.0 | 0.0 | 0.00 | 0.00 | 0.00 | 61 | 1008.8 |
| 20260505213335 | 47 | 328 | 0.0 | 0.0 | 0.00 | 0.00 | 0.00 | 61 | 1008.7 |
| 20260505212831 | 47 | 308 | 0.0 | 0.0 | 0.00 | 0.00 | 0.00 | 61 | 1008.6 |
| 20260505212328 | 47 | 327 | 0.0 | 0.0 | 0.00 | 0.00 | 0.00 | 62 | 1008.5 |
| 20260505211824 | 47 | 267 | 0.0 | 0.0 | 0.00 | 0.00 | 0.00 | 62 | 1008.5 |
| 20260505211322 | 47 | 253 | 1.0 | 1.0 | 0.00 | 0.00 | 0.00 | 62 | 1008.8 |
| 20260505210818 | 47 | 345 | 0.0 | 0.0 | 0.00 | 0.00 | 0.00 | 62 | 1008.5 |
| 20260505210315 | 48 | 350 | 0.0 | 0.0 | 0.00 | 0.00 | 0.00 | 61 | 1008.4 |
| 20260505205812 | 48 | 276 | 0.0 | 1.0 | 0.00 | 0.00 | 0.00 | 61 | 1008.6 |
| 20260505205310 | 48 | 312 | 0.0 | 0.0 | 0.00 | 0.00 | 0.00 | 60 | 1008.4 |
| 20260505204807 | 48 | 338 | 0.0 | 0.0 | 0.00 | 0.00 | 0.00 | 59 | 1008.5 |
| 20260505204305 | 48 | 3 | 0.0 | 1.0 | 0.00 | 0.00 | 0.00 | 58 | 1008.5 |
| 20260505203802 | 48 | 349 | 0.0 | 1.0 | 0.00 | 0.00 | 0.00 | 57 | 1008.5 |
| 20260505203258 | 48 | 326 | 0.0 | 0.0 | 0.00 | 0.00 | 0.00 | 57 | 1008.3 |
| 20260505202754 | 48 | 352 | 0.0 | 0.0 | 0.00 | 0.00 | 0.00 | 57 | 1008.1 |
| 20260505202251 | 48 | 320 | 0.0 | 0.0 | 0.00 | 0.00 | 0.00 | 58 | 1008.4 |
| 20260505201747 | 48 | 336 | 0.0 | 1.0 | 0.00 | 0.00 | 0.00 | 59 | 1008.2 |
| 20260505201245 | 48 | 348 | 0.0 | 0.0 | 0.00 | 0.00 | 0.00 | 59 | 1008.3 |
| 20260505200743 | 48 | 345 | 0.0 | 0.0 | 0.00 | 0.00 | 0.00 | 59 | 1008.2 |
| 20260505200240 | 48 | 348 | 0.0 | 1.0 | 0.00 | 0.00 | 0.00 | 60 | 1008.1 |
| 20260505195735 | 48 | 352 | 0.0 | 0.0 | 0.00 | 0.00 | 0.00 | 60 | 1008.0 |
| 20260505195233 | 48 | 342 | 0.0 | 0.0 | 0.00 | 0.00 | 0.00 | 61 | 1008.0 |
| 20260505194730 | 48 | 347 | 0.0 | 0.0 | 0.00 | 0.00 | 0.00 | 60 | 1008.0 |
| 20260505194226 | 48 | 338 | 0.0 | 0.0 | 0.00 | 0.00 | 0.00 | 60 | 1008.2 |
| 20260505193722 | 48 | 351 | 0.0 | 0.0 | 0.00 | 0.00 | 0.00 | 60 | 1007.9 |
| 20260505193220 | 48 | 310 | 0.0 | 0.0 | 0.00 | 0.00 | 0.00 | 60 | 1007.8 |
| 20260505192718 | 48 | 327 | 0.0 | 0.0 | 0.00 | 0.00 | 0.00 | 59 | 1007.9 |
| 20260505192216 | 48 | 318 | 0.0 | 0.0 | 0.00 | 0.00 | 0.00 | 59 | 1008.0 |
| 20260505191714 | 48 | 359 | 1.0 | 2.0 | 0.00 | 0.00 | 0.00 | 59 | 1008.1 |
| 20260505191212 | 48 | 20 | 1.0 | 1.0 | 0.00 | 0.00 | 0.00 | 60 | 1008.0 |
| 20260505190707 | 48 | 12 | 0.0 | 0.0 | 0.00 | 0.00 | 0.00 | 61 | 1007.8 |
| 20260505190202 | 48 | 337 | 0.0 | 0.0 | 0.00 | 0.00 | 0.00 | 61 | 1008.1 |
| 20260505185659 | 48 | 348 | 0.0 | 0.0 | 0.00 | 0.00 | 0.00 | 61 | 1007.9 |